datetime,storage
1984-06-01,242260.0
1984-06-02,242820.0
1984-06-03,243130.0
1984-06-04,243099.0
1984-06-05,242726.0
1984-06-06,242540.0
1984-06-07,241798.0
1984-06-08,241425.0
1984-06-09,241086.0
1984-06-10,241302.0
1984-06-11,241147.0
1984-06-12,241240.0
1984-06-13,241549.0
1984-06-14,242014.0
1984-06-15,242695.0
1984-06-16,243379.0
1984-06-17,243784.0
1984-06-18,244253.0
1984-06-19,244597.0
1984-06-20,244910.0
1984-06-21,245444.0
1984-06-22,245914.0
1984-06-23,246261.0
1984-06-24,246579.0
1984-06-25,246672.0
1984-06-26,246641.0
1984-06-27,246672.0
1984-06-28,246672.0
1984-06-29,246766.0
1984-06-30,247335.0
1984-07-01,248797.0
1984-07-02,250108.0
1984-07-03,251038.0
1984-07-04,251682.0
1984-07-05,251682.0
1984-07-06,251779.0
1984-07-07,251716.0
1984-07-08,251974.0
1984-07-09,252783.0
1984-07-10,252750.0
1984-07-11,251877.0
1984-07-12,251297.0
1984-07-13,250814.0
1984-07-14,250331.0
1984-07-15,249660.0
1984-07-16,248670.0
1984-07-17,247429.0
1984-07-18,246073.0
1984-07-19,245194.0
1984-07-20,244565.0
1984-07-21,243816.0
1984-07-22,243038.0
1984-07-23,242385.0
1984-07-24,241983.0
1984-07-25,241704.0
1984-07-26,241147.0
1984-07-27,240470.0
1984-07-28,239979.0
1984-07-29,239702.0
1984-07-30,239764.0
1984-07-31,239641.0
1984-08-01,239273.0
1984-08-02,238724.0
1984-08-03,237869.0
1984-08-04,237110.0
1984-08-05,236473.0
1984-08-06,236473.0
1984-08-07,236081.0
1984-08-08,235386.0
1984-08-09,234514.0
1984-08-10,233526.0
1984-08-11,232421.0
1984-08-12,231291.0
1984-08-13,230109.0
1984-08-14,228900.0
1984-08-15,229048.0
1984-08-16,229402.0
1984-08-17,229784.0
1984-08-18,230254.0
1984-08-19,230847.0
1984-08-20,231618.0
1984-08-21,232480.0
1984-08-22,233345.0
1984-08-23,234155.0
1984-08-24,233676.0
1984-08-25,232956.0
1984-08-26,232004.0
1984-08-27,231588.0
1984-08-28,231262.0
1984-08-29,230729.0
1984-08-30,230137.0
1984-08-31,229666.0
1984-09-01,229078.0
1984-09-02,228402.0
1984-09-03,227669.0
1984-09-04,227640.0
1984-09-05,227611.0
1984-09-06,227933.0
1984-09-07,228138.0
1984-09-08,228081.0
1984-09-09,227992.0
1984-09-10,227992.0
1984-09-11,228518.0
1984-09-12,228490.0
1984-09-13,228344.0
1984-09-14,228372.0
1984-09-15,228430.0
1984-09-16,228372.0
1984-09-17,228842.0
1984-09-18,229341.0
1984-09-19,229813.0
1984-09-20,229813.0
1984-09-21,229813.0
1984-09-22,229725.0
1984-09-23,229636.0
1984-09-24,229725.0
1984-09-25,230109.0
1984-09-26,230758.0
1984-09-27,231232.0
1984-09-28,231470.0
1984-09-29,231351.0
1984-09-30,231410.0
1984-10-01,231944.0
1984-10-02,232392.0
1984-10-03,232927.0
1984-10-04,233465.0
1984-10-05,234063.0
1984-10-06,234604.0
1984-10-07,235114.0
1984-10-08,235656.0
1984-10-09,236172.0
1984-10-10,236625.0
1984-10-11,237110.0
1984-10-12,237262.0
1984-10-13,237232.0
1984-10-14,237170.0
1984-10-15,237384.0
1984-10-16,237322.0
1984-10-17,237747.0
1984-10-18,238174.0
1984-10-19,238601.0
1984-10-20,238998.0
1984-10-21,239365.0
1984-10-22,239794.0
1984-10-23,240131.0
1984-10-24,240470.0
1984-10-25,240839.0
1984-10-26,241272.0
1984-10-27,241704.0
1984-10-28,242075.0
1984-10-29,242478.0
1984-10-30,242851.0
1984-10-31,243224.0
1984-11-01,243598.0
1984-11-02,243909.0
1984-11-03,244189.0
1984-11-04,244503.0
1984-11-05,244878.0
1984-11-06,245194.0
1984-11-07,245444.0
1984-11-08,245601.0
1984-11-09,245287.0
1984-11-10,244910.0
1984-11-11,244534.0
1984-11-12,244034.0
1984-11-13,243629.0
1984-11-14,243224.0
1984-11-15,242975.0
1984-11-16,242634.0
1984-11-17,242138.0
1984-11-18,241580.0
1984-11-19,240993.0
1984-11-20,240408.0
1984-11-21,239855.0
1984-11-22,239304.0
1984-11-23,238783.0
1984-11-24,238204.0
1984-11-25,237715.0
1984-11-26,237110.0
1984-11-27,236534.0
1984-11-28,235959.0
1984-11-29,235386.0
1984-11-30,234814.0
1984-12-01,234303.0
1984-12-02,233676.0
1984-12-03,233106.0
1984-12-04,232510.0
1984-12-05,231913.0
1984-12-06,231320.0
1984-12-07,230758.0
1984-12-08,230196.0
1984-12-09,229636.0
1984-12-10,229576.0
1984-12-11,229725.0
1984-12-12,229754.0
1984-12-13,229754.0
1984-12-14,229725.0
1984-12-15,229725.0
1984-12-16,229725.0
1984-12-17,229696.0
1984-12-18,229696.0
1984-12-19,229696.0
1984-12-20,229696.0
1984-12-21,229607.0
1984-12-22,229576.0
1984-12-23,229487.0
1984-12-24,229459.0
1984-12-25,229370.0
1984-12-26,229402.0
1984-12-27,229430.0
1984-12-28,229402.0
1984-12-29,229370.0
1984-12-30,229370.0
1984-12-31,229370.0
1985-01-01,229341.0
1985-01-02,229312.0
1985-01-03,229253.0
1985-01-04,229284.0
1985-01-05,229312.0
1985-01-06,229312.0
1985-01-07,229341.0
1985-01-08,229370.0
1985-01-09,229402.0
1985-01-10,229402.0
1985-01-11,229402.0
1985-01-12,229430.0
1985-01-13,229430.0
1985-01-14,229430.0
1985-01-15,229459.0
1985-01-16,229459.0
1985-01-17,229430.0
1985-01-18,229459.0
1985-01-19,229459.0
1985-01-20,229487.0
1985-01-21,229576.0
1985-01-22,229548.0
1985-01-23,229548.0
1985-01-24,229487.0
1985-01-25,229487.0
1985-01-26,229459.0
1985-01-27,229430.0
1985-01-28,229430.0
1985-01-29,229430.0
1985-01-30,229430.0
1985-01-31,229402.0
1985-02-01,229343.0
1985-02-02,229314.0
1985-02-03,229284.0
1985-02-04,229255.0
1985-02-05,229284.0
1985-02-06,229314.0
1985-02-07,229284.0
1985-02-08,229284.0
1985-02-09,229314.0
1985-02-10,229314.0
1985-02-11,229284.0
1985-02-12,229314.0
1985-02-13,229284.0
1985-02-14,229284.0
1985-02-15,229284.0
1985-02-16,229314.0
1985-02-17,229314.0
1985-02-18,229314.0
1985-02-19,229343.0
1985-02-20,229314.0
1985-02-21,229314.0
1985-02-22,229343.0
1985-02-23,229314.0
1985-02-24,229314.0
1985-02-25,229491.0
1985-02-26,229579.0
1985-02-27,229727.0
1985-02-28,229904.0
1985-03-01,230051.0
1985-03-02,230199.0
1985-03-03,230377.0
1985-03-04,230495.0
1985-03-05,230673.0
1985-03-06,230851.0
1985-03-07,230999.0
1985-03-08,231147.0
1985-03-09,231325.0
1985-03-10,231652.0
1985-03-11,231831.0
1985-03-12,232039.0
1985-03-13,232188.0
1985-03-14,232367.0
1985-03-15,232575.0
1985-03-16,232755.0
1985-03-17,232904.0
1985-03-18,233083.0
1985-03-19,233053.0
1985-03-20,232964.0
1985-03-21,232814.0
1985-03-22,232486.0
1985-03-23,232158.0
1985-03-24,231801.0
1985-03-25,231503.0
1985-03-26,231177.0
1985-03-27,230940.0
1985-03-28,230673.0
1985-03-29,230288.0
1985-03-30,229963.0
1985-03-31,229668.0
1985-04-01,229314.0
1985-04-02,229255.0
1985-04-03,229402.0
1985-04-04,229579.0
1985-04-05,229579.0
1985-04-06,229491.0
1985-04-07,229491.0
1985-04-08,229520.0
1985-04-09,229609.0
1985-04-10,229520.0
1985-04-11,229432.0
1985-04-12,229491.0
1985-04-13,229550.0
1985-04-14,229668.0
1985-04-15,229756.0
1985-04-16,229874.0
1985-04-17,229933.0
1985-04-18,230022.0
1985-04-19,229845.0
1985-04-20,229579.0
1985-04-21,229196.0
1985-04-22,228990.0
1985-04-23,228931.0
1985-04-24,229049.0
1985-04-25,229196.0
1985-04-26,229107.0
1985-04-27,229078.0
1985-04-28,229078.0
1985-04-29,229107.0
1985-04-30,229255.0
1985-05-01,229461.0
1985-05-02,229904.0
1985-05-03,230199.0
1985-05-04,230702.0
1985-05-05,231296.0
1985-05-06,231860.0
1985-05-07,232426.0
1985-05-08,233173.0
1985-05-09,233921.0
1985-05-10,234883.0
1985-05-11,235636.0
1985-05-12,236241.0
1985-05-13,236574.0
1985-05-14,236816.0
1985-05-15,237028.0
1985-05-16,237241.0
1985-05-17,237636.0
1985-05-18,238032.0
1985-05-19,238520.0
1985-05-20,238917.0
1985-05-21,239345.0
1985-05-22,239927.0
1985-05-23,240634.0
1985-05-24,241589.0
1985-05-25,242610.0
1985-05-26,243635.0
1985-05-27,244883.0
1985-05-28,246452.0
1985-05-29,248158.0
1985-05-30,249621.0
1985-05-31,250901.0
1985-06-01,252059.0
1985-06-02,253451.0
1985-06-03,254819.0
1985-06-04,256295.0
1985-06-05,257915.0
1985-06-06,259446.0
1985-06-07,260821.0
1985-06-08,261866.0
1985-06-09,262068.0
1985-06-10,261899.0
1985-06-11,261359.0
1985-06-12,261090.0
1985-06-13,261023.0
1985-06-14,260955.0
1985-06-15,260922.0
1985-06-16,260888.0
1985-06-17,260787.0
1985-06-18,260518.0
1985-06-19,260350.0
1985-06-20,260183.0
1985-06-21,260015.0
1985-06-22,259814.0
1985-06-23,259613.0
1985-06-24,259580.0
1985-06-25,259480.0
1985-06-26,259146.0
1985-06-27,258879.0
1985-06-28,258613.0
1985-06-29,258280.0
1985-06-30,258047.0
1985-07-01,258014.0
1985-07-02,257948.0
1985-07-03,257881.0
1985-07-04,257782.0
1985-07-05,257749.0
1985-07-06,257649.0
1985-07-07,257649.0
1985-07-08,257583.0
1985-07-09,257616.0
1985-07-10,257583.0
1985-07-11,257550.0
1985-07-12,257716.0
1985-07-13,257517.0
1985-07-14,257418.0
1985-07-15,257351.0
1985-07-16,257318.0
1985-07-17,257252.0
1985-07-18,257385.0
1985-07-19,257716.0
1985-07-20,257815.0
1985-07-21,257915.0
1985-07-22,258147.0
1985-07-23,258114.0
1985-07-24,258014.0
1985-07-25,257815.0
1985-07-26,257616.0
1985-07-27,257484.0
1985-07-28,257252.0
1985-07-29,257087.0
1985-07-30,257021.0
1985-07-31,256856.0
1985-08-01,256790.0
1985-08-02,256724.0
1985-08-03,256625.0
1985-08-04,256493.0
1985-08-05,255901.0
1985-08-06,255048.0
1985-08-07,254525.0
1985-08-08,254036.0
1985-08-09,253548.0
1985-08-10,253062.0
1985-08-11,252673.0
1985-08-12,252188.0
1985-08-13,251672.0
1985-08-14,251126.0
1985-08-15,250580.0
1985-08-16,250004.0
1985-08-17,249430.0
1985-08-18,248888.0
1985-08-19,248317.0
1985-08-20,247746.0
1985-08-21,247146.0
1985-08-22,246546.0
1985-08-23,245886.0
1985-08-24,245259.0
1985-08-25,244602.0
1985-08-26,243915.0
1985-08-27,243324.0
1985-08-28,242703.0
1985-08-29,242114.0
1985-08-30,241466.0
1985-08-31,240818.0
1985-09-01,240234.0
1985-09-02,239620.0
1985-09-03,239069.0
1985-09-04,238978.0
1985-09-05,238672.0
1985-09-06,238306.0
1985-09-07,237971.0
1985-09-08,237606.0
1985-09-09,237271.0
1985-09-10,236968.0
1985-09-11,236695.0
1985-09-12,236392.0
1985-09-13,236059.0
1985-09-14,235757.0
1985-09-15,235486.0
1985-09-16,235184.0
1985-09-17,234823.0
1985-09-18,234552.0
1985-09-19,234192.0
1985-09-20,233862.0
1985-09-21,233682.0
1985-09-22,233412.0
1985-09-23,233113.0
1985-09-24,232904.0
1985-09-25,232575.0
1985-09-26,232277.0
1985-09-27,232009.0
1985-09-28,231950.0
1985-09-29,231682.0
1985-09-30,231385.0
1985-10-01,231117.0
1985-10-02,230821.0
1985-10-03,230495.0
1985-10-04,230170.0
1985-10-05,229874.0
1985-10-06,229668.0
1985-10-07,229579.0
1985-10-08,229343.0
1985-10-09,229373.0
1985-10-10,229579.0
1985-10-11,229579.0
1985-10-12,229550.0
1985-10-13,229638.0
1985-10-14,229609.0
1985-10-15,229727.0
1985-10-16,229933.0
1985-10-17,230140.0
1985-10-18,230051.0
1985-10-19,229933.0
1985-10-20,229815.0
1985-10-21,229697.0
1985-10-22,229550.0
1985-10-23,229432.0
1985-10-24,229284.0
1985-10-25,229255.0
1985-10-26,229225.0
1985-10-27,229255.0
1985-10-28,229225.0
1985-10-29,229255.0
1985-10-30,229255.0
1985-10-31,229255.0
1985-11-01,229255.0
1985-11-02,229255.0
1985-11-03,229225.0
1985-11-04,229225.0
1985-11-05,229255.0
1985-11-06,229255.0
1985-11-07,229225.0
1985-11-08,229432.0
1985-11-09,229520.0
1985-11-10,229432.0
1985-11-11,229373.0
1985-11-12,229284.0
1985-11-13,229196.0
1985-11-14,229255.0
1985-11-15,229196.0
1985-11-16,229196.0
1985-11-17,229196.0
1985-11-18,229166.0
1985-11-19,229078.0
1985-11-20,229137.0
1985-11-21,229166.0
1985-11-22,229196.0
1985-11-23,229284.0
1985-11-24,229343.0
1985-11-25,229491.0
1985-11-26,229579.0
1985-11-27,229668.0
1985-11-28,229697.0
1985-11-29,229579.0
1985-11-30,229520.0
1985-12-01,229373.0
1985-12-02,229284.0
1985-12-03,229284.0
1985-12-04,229255.0
1985-12-05,229225.0
1985-12-06,229196.0
1985-12-07,229196.0
1985-12-08,229166.0
1985-12-09,229166.0
1985-12-10,229166.0
1985-12-11,229166.0
1985-12-12,229137.0
1985-12-13,229196.0
1985-12-14,229255.0
1985-12-15,229343.0
1985-12-16,229432.0
1985-12-17,229520.0
1985-12-18,229609.0
1985-12-19,229727.0
1985-12-20,229815.0
1985-12-21,229845.0
1985-12-22,229963.0
1985-12-23,230081.0
1985-12-24,230111.0
1985-12-25,230199.0
1985-12-26,230258.0
1985-12-27,230347.0
1985-12-28,230406.0
1985-12-29,230525.0
1985-12-30,230673.0
1985-12-31,230702.0
1986-01-01,230791.0
1986-01-02,230880.0
1986-01-03,230940.0
1986-01-04,230969.0
1986-01-05,231088.0
1986-01-06,231177.0
1986-01-07,231236.0
1986-01-08,231355.0
1986-01-09,231414.0
1986-01-10,231474.0
1986-01-11,231533.0
1986-01-12,231593.0
1986-01-13,231622.0
1986-01-14,231771.0
1986-01-15,231801.0
1986-01-16,231890.0
1986-01-17,231979.0
1986-01-18,232069.0
1986-01-19,232158.0
1986-01-20,232247.0
1986-01-21,232277.0
1986-01-22,232396.0
1986-01-23,232456.0
1986-01-24,232486.0
1986-01-25,232546.0
1986-01-26,232605.0
1986-01-27,232665.0
1986-01-28,232725.0
1986-01-29,232784.0
1986-01-30,232874.0
1986-01-31,232904.0
1986-02-01,232934.0
1986-02-02,232993.0
1986-02-03,233053.0
1986-02-04,233113.0
1986-02-05,233173.0
1986-02-06,233233.0
1986-02-07,233322.0
1986-02-08,233352.0
1986-02-09,233412.0
1986-02-10,233532.0
1986-02-11,233652.0
1986-02-12,233772.0
1986-02-13,234041.0
1986-02-14,234131.0
1986-02-15,234252.0
1986-02-16,234312.0
1986-02-17,234462.0
1986-02-18,234552.0
1986-02-19,234762.0
1986-02-20,234853.0
1986-02-21,234913.0
1986-02-22,234973.0
1986-02-23,235064.0
1986-02-24,235154.0
1986-02-25,235214.0
1986-02-26,235274.0
1986-02-27,235335.0
1986-02-28,235395.0
1986-03-01,235455.0
1986-03-02,235576.0
1986-03-03,235606.0
1986-03-04,235667.0
1986-03-05,235727.0
1986-03-06,235818.0
1986-03-07,235908.0
1986-03-08,235999.0
1986-03-09,236120.0
1986-03-10,236150.0
1986-03-11,236271.0
1986-03-12,236332.0
1986-03-13,236392.0
1986-03-14,236453.0
1986-03-15,236543.0
1986-03-16,236634.0
1986-03-17,236725.0
1986-03-18,236816.0
1986-03-19,236877.0
1986-03-20,236937.0
1986-03-21,237028.0
1986-03-22,237120.0
1986-03-23,237180.0
1986-03-24,237302.0
1986-03-25,237362.0
1986-03-26,237423.0
1986-03-27,237545.0
1986-03-28,237666.0
1986-03-29,237879.0
1986-03-30,238093.0
1986-03-31,238337.0
1986-04-01,238550.0
1986-04-02,238917.0
1986-04-03,239100.0
1986-04-04,239284.0
1986-04-05,239528.0
1986-04-06,239712.0
1986-04-07,239866.0
1986-04-08,240173.0
1986-04-09,240418.0
1986-04-10,240664.0
1986-04-11,240941.0
1986-04-12,241188.0
1986-04-13,241435.0
1986-04-14,241620.0
1986-04-15,241867.0
1986-04-16,242114.0
1986-04-17,242393.0
1986-04-18,242486.0
1986-04-19,242672.0
1986-04-20,242920.0
1986-04-21,243137.0
1986-04-22,243448.0
1986-04-23,243697.0
1986-04-24,244102.0
1986-04-25,244539.0
1986-04-26,244914.0
1986-04-27,245227.0
1986-04-28,245604.0
1986-04-29,245980.0
1986-04-30,246452.0
1986-05-01,247051.0
1986-05-02,247714.0
1986-05-03,248634.0
1986-05-04,249621.0
1986-05-05,250676.0
1986-05-06,251608.0
1986-05-07,252673.0
1986-05-08,252544.0
1986-05-09,250837.0
1986-05-10,249175.0
1986-05-11,247525.0
1986-05-12,246232.0
1986-05-13,247051.0
1986-05-14,247778.0
1986-05-15,248380.0
1986-05-16,248666.0
1986-05-17,249557.0
1986-05-18,250965.0
1986-05-19,252059.0
1986-05-20,253256.0
1986-05-21,254689.0
1986-05-22,256032.0
1986-05-23,256955.0
1986-05-24,257484.0
1986-05-25,258014.0
1986-05-26,258380.0
1986-05-27,258712.0
1986-05-28,259046.0
1986-05-29,259079.0
1986-05-30,259079.0
1986-05-31,259213.0
1986-06-01,259146.0
1986-06-02,259246.0
1986-06-03,259580.0
1986-06-04,260082.0
1986-06-05,260451.0
1986-06-06,260787.0
1986-06-07,261056.0
1986-06-08,261191.0
1986-06-09,261056.0
1986-06-10,260518.0
1986-06-11,260149.0
1986-06-12,260082.0
1986-06-13,259948.0
1986-06-14,259982.0
1986-06-15,260082.0
1986-06-16,260283.0
1986-06-17,260283.0
1986-06-18,260418.0
1986-06-19,260552.0
1986-06-20,260485.0
1986-06-21,260317.0
1986-06-22,260149.0
1986-06-23,260116.0
1986-06-24,259915.0
1986-06-25,259881.0
1986-06-26,259814.0
1986-06-27,259781.0
1986-06-28,259714.0
1986-06-29,259513.0
1986-06-30,259313.0
1986-07-01,259179.0
1986-07-02,258979.0
1986-07-03,259012.0
1986-07-04,259012.0
1986-07-05,259146.0
1986-07-06,259313.0
1986-07-07,259146.0
1986-07-08,258879.0
1986-07-09,258746.0
1986-07-10,258579.0
1986-07-11,258413.0
1986-07-12,258313.0
1986-07-13,258114.0
1986-07-14,258081.0
1986-07-15,257981.0
1986-07-16,257848.0
1986-07-17,257915.0
1986-07-18,257881.0
1986-07-19,257848.0
1986-07-20,257848.0
1986-07-21,257749.0
1986-07-22,257716.0
1986-07-23,257649.0
1986-07-24,257484.0
1986-07-25,257385.0
1986-07-26,257252.0
1986-07-27,257120.0
1986-07-28,256988.0
1986-07-29,256922.0
1986-07-30,256757.0
1986-07-31,256691.0
1986-08-01,256625.0
1986-08-02,256526.0
1986-08-03,256460.0
1986-08-04,256394.0
1986-08-05,256328.0
1986-08-06,256295.0
1986-08-07,256262.0
1986-08-08,256230.0
1986-08-09,256197.0
1986-08-10,256164.0
1986-08-11,256197.0
1986-08-12,256295.0
1986-08-13,256230.0
1986-08-14,256098.0
1986-08-15,256131.0
1986-08-16,256032.0
1986-08-17,255966.0
1986-08-18,255999.0
1986-08-19,255901.0
1986-08-20,255934.0
1986-08-21,255966.0
1986-08-22,256032.0
1986-08-23,256098.0
1986-08-24,256197.0
1986-08-25,256164.0
1986-08-26,255835.0
1986-08-27,255507.0
1986-08-28,255179.0
1986-08-29,254885.0
1986-08-30,254525.0
1986-08-31,254134.0
1986-09-01,253743.0
1986-09-02,253354.0
1986-09-03,252964.0
1986-09-04,252544.0
1986-09-05,252092.0
1986-09-06,251672.0
1986-09-07,251383.0
1986-09-08,251029.0
1986-09-09,250644.0
1986-09-10,250324.0
1986-09-11,249908.0
1986-09-12,249525.0
1986-09-13,249207.0
1986-09-14,248666.0
1986-09-15,248221.0
1986-09-16,247746.0
1986-09-17,247714.0
1986-09-18,247714.0
1986-09-19,247588.0
1986-09-20,247493.0
1986-09-21,247367.0
1986-09-22,247240.0
1986-09-23,247082.0
1986-09-24,246893.0
1986-09-25,246767.0
1986-09-26,246609.0
1986-09-27,246452.0
1986-09-28,246326.0
1986-09-29,246232.0
1986-09-30,246075.0
1986-10-01,246075.0
1986-10-02,245980.0
1986-10-03,245949.0
1986-10-04,245886.0
1986-10-05,245823.0
1986-10-06,245729.0
1986-10-07,245698.0
1986-10-08,245635.0
1986-10-09,245541.0
1986-10-10,245478.0
1986-10-11,245290.0
1986-10-12,245133.0
1986-10-13,244977.0
1986-10-14,244852.0
1986-10-15,244727.0
1986-10-16,244570.0
1986-10-17,244477.0
1986-10-18,244321.0
1986-10-19,244289.0
1986-10-20,244165.0
1986-10-21,244165.0
1986-10-22,244040.0
1986-10-23,243915.0
1986-10-24,243448.0
1986-10-25,242982.0
1986-10-26,242455.0
1986-10-27,241960.0
1986-10-28,241435.0
1986-10-29,240972.0
1986-10-30,240511.0
1986-10-31,240418.0
1986-11-01,240418.0
1986-11-02,240388.0
1986-11-03,240326.0
1986-11-04,240234.0
1986-11-05,240173.0
1986-11-06,240203.0
1986-11-07,240203.0
1986-11-08,240142.0
1986-11-09,240019.0
1986-11-10,239896.0
1986-11-11,239712.0
1986-11-12,239590.0
1986-11-13,239528.0
1986-11-14,239590.0
1986-11-15,239620.0
1986-11-16,239682.0
1986-11-17,239774.0
1986-11-18,239866.0
1986-11-19,239958.0
1986-11-20,240050.0
1986-11-21,240111.0
1986-11-22,240142.0
1986-11-23,240203.0
1986-11-24,240265.0
1986-11-25,240295.0
1986-11-26,240295.0
1986-11-27,240326.0
1986-11-28,240388.0
1986-11-29,240480.0
1986-11-30,240572.0
1986-12-01,240603.0
1986-12-02,240634.0
1986-12-03,240664.0
1986-12-04,240726.0
1986-12-05,240818.0
1986-12-06,240695.0
1986-12-07,240787.0
1986-12-08,240726.0
1986-12-09,240572.0
1986-12-10,240480.0
1986-12-11,240418.0
1986-12-12,240326.0
1986-12-13,240203.0
1986-12-14,240173.0
1986-12-15,240050.0
1986-12-16,239988.0
1986-12-17,239835.0
1986-12-18,239774.0
1986-12-19,239682.0
1986-12-20,239590.0
1986-12-21,239498.0
1986-12-22,239406.0
1986-12-23,239345.0
1986-12-24,239253.0
1986-12-25,239161.0
1986-12-26,239008.0
1986-12-27,238917.0
1986-12-28,238825.0
1986-12-29,238764.0
1986-12-30,238672.0
1986-12-31,238581.0
1987-01-01,238489.0
1987-01-02,238428.0
1987-01-03,238337.0
1987-01-04,238215.0
1987-01-05,238184.0
1987-01-06,238062.0
1987-01-07,237940.0
1987-01-08,237879.0
1987-01-09,237788.0
1987-01-10,237727.0
1987-01-11,237575.0
1987-01-12,237454.0
1987-01-13,237362.0
1987-01-14,237271.0
1987-01-15,237150.0
1987-01-16,237028.0
1987-01-17,236937.0
1987-01-18,236847.0
1987-01-19,236725.0
1987-01-20,236604.0
1987-01-21,236483.0
1987-01-22,236362.0
1987-01-23,236271.0
1987-01-24,236180.0
1987-01-25,236120.0
1987-01-26,236029.0
1987-01-27,235938.0
1987-01-28,235848.0
1987-01-29,235757.0
1987-01-30,235667.0
1987-01-31,235546.0
1987-02-01,235455.0
1987-02-02,235335.0
1987-02-03,235214.0
1987-02-04,235154.0
1987-02-05,235003.0
1987-02-06,234913.0
1987-02-07,234793.0
1987-02-08,234672.0
1987-02-09,234582.0
1987-02-10,234492.0
1987-02-11,234372.0
1987-02-12,234282.0
1987-02-13,234161.0
1987-02-14,234101.0
1987-02-15,234011.0
1987-02-16,233891.0
1987-02-17,233802.0
1987-02-18,233712.0
1987-02-19,233562.0
1987-02-20,233412.0
1987-02-21,233322.0
1987-02-22,233233.0
1987-02-23,233113.0
1987-02-24,232993.0
1987-02-25,232904.0
1987-02-26,232814.0
1987-02-27,232725.0
1987-02-28,232605.0
1987-03-01,232486.0
1987-03-02,232337.0
1987-03-03,232188.0
1987-03-04,232039.0
1987-03-05,231979.0
1987-03-06,232009.0
1987-03-07,232098.0
1987-03-08,232128.0
1987-03-09,232158.0
1987-03-10,232188.0
1987-03-11,232307.0
1987-03-12,232307.0
1987-03-13,232396.0
1987-03-14,232456.0
1987-03-15,232486.0
1987-03-16,232575.0
1987-03-17,232605.0
1987-03-18,232665.0
1987-03-19,232784.0
1987-03-20,232844.0
1987-03-21,232964.0
1987-03-22,233083.0
1987-03-23,233143.0
1987-03-24,233233.0
1987-03-25,233263.0
1987-03-26,233352.0
1987-03-27,233382.0
1987-03-28,233442.0
1987-03-29,233442.0
1987-03-30,233532.0
1987-03-31,233562.0
1987-04-01,233742.0
1987-04-02,233742.0
1987-04-03,233832.0
1987-04-04,233862.0
1987-04-05,233921.0
1987-04-06,234011.0
1987-04-07,234071.0
1987-04-08,234192.0
1987-04-09,234312.0
1987-04-10,234372.0
1987-04-11,234522.0
1987-04-12,234672.0
1987-04-13,234732.0
1987-04-14,234823.0
1987-04-15,234883.0
1987-04-16,235094.0
1987-04-17,235335.0
1987-04-18,235606.0
1987-04-19,236029.0
1987-04-20,236210.0
1987-04-21,236422.0
1987-04-22,236756.0
1987-04-23,237150.0
1987-04-24,237514.0
1987-04-25,237940.0
1987-04-26,238397.0
1987-04-27,238917.0
1987-04-28,239528.0
1987-04-29,240173.0
1987-04-30,240941.0
1987-05-01,241713.0
1987-05-02,242455.0
1987-05-03,243137.0
1987-05-04,243635.0
1987-05-05,244196.0
1987-05-06,244789.0
1987-05-07,245384.0
1987-05-08,246232.0
1987-05-09,247177.0
1987-05-10,248380.0
1987-05-11,249717.0
1987-05-12,251061.0
1987-05-13,252641.0
1987-05-14,254460.0
1987-05-15,256328.0
1987-05-16,257782.0
1987-05-17,258679.0
1987-05-18,258979.0
1987-05-19,259046.0
1987-05-20,258979.0
1987-05-21,258846.0
1987-05-22,258679.0
1987-05-23,258546.0
1987-05-24,258446.0
1987-05-25,258280.0
1987-05-26,258081.0
1987-05-27,257981.0
1987-05-28,257881.0
1987-05-29,257782.0
1987-05-30,257683.0
1987-05-31,257782.0
1987-06-01,257981.0
1987-06-02,258147.0
1987-06-03,258247.0
1987-06-04,258413.0
1987-06-05,258513.0
1987-06-06,258613.0
1987-06-07,258779.0
1987-06-08,259046.0
1987-06-09,259246.0
1987-06-10,259279.0
1987-06-11,259146.0
1987-06-12,259146.0
1987-06-13,259112.0
1987-06-14,259112.0
1987-06-15,259046.0
1987-06-16,258979.0
1987-06-17,258846.0
1987-06-18,258679.0
1987-06-19,258546.0
1987-06-20,258380.0
1987-06-21,258247.0
1987-06-22,258114.0
1987-06-23,258014.0
1987-06-24,257881.0
1987-06-25,257749.0
1987-06-26,257649.0
1987-06-27,257517.0
1987-06-28,257451.0
1987-06-29,257550.0
1987-06-30,257517.0
1987-07-01,257451.0
1987-07-02,257385.0
1987-07-03,257153.0
1987-07-04,257054.0
1987-07-05,256922.0
1987-07-06,256790.0
1987-07-07,256691.0
1987-07-08,256592.0
1987-07-09,256526.0
1987-07-10,256427.0
1987-07-11,256361.0
1987-07-12,256394.0
1987-07-13,256361.0
1987-07-14,256295.0
1987-07-15,256230.0
1987-07-16,256164.0
1987-07-17,256295.0
1987-07-18,256262.0
1987-07-19,256230.0
1987-07-20,256131.0
1987-07-21,255999.0
1987-07-22,255966.0
1987-07-23,255901.0
1987-07-24,255966.0
1987-07-25,255868.0
1987-07-26,255671.0
1987-07-27,255671.0
1987-07-28,255540.0
1987-07-29,255408.0
1987-07-30,255310.0
1987-07-31,255310.0
1987-08-01,255245.0
1987-08-02,255146.0
1987-08-03,254983.0
1987-08-04,254754.0
1987-08-05,254591.0
1987-08-06,254558.0
1987-08-07,254460.0
1987-08-08,254362.0
1987-08-09,254232.0
1987-08-10,254069.0
1987-08-11,253971.0
1987-08-12,253809.0
1987-08-13,253678.0
1987-08-14,253581.0
1987-08-15,253483.0
1987-08-16,253386.0
1987-08-17,253127.0
1987-08-18,253029.0
1987-08-19,252900.0
1987-08-20,252803.0
1987-08-21,252803.0
1987-08-22,252867.0
1987-08-23,253062.0
1987-08-24,252997.0
1987-08-25,253029.0
1987-08-26,252997.0
1987-08-27,252964.0
1987-08-28,252738.0
1987-08-29,252511.0
1987-08-30,252253.0
1987-08-31,252027.0
1987-09-01,251737.0
1987-09-02,251479.0
1987-09-03,251351.0
1987-09-04,251254.0
1987-09-05,251190.0
1987-09-06,251094.0
1987-09-07,250965.0
1987-09-08,251061.0
1987-09-09,251029.0
1987-09-10,251319.0
1987-09-11,251383.0
1987-09-12,251479.0